User: anonymous   Login
Location: Caltech
(34.1382°N, 118.1253°W)
Time: 18:02:04
(UTC-08:00)
Language:

Meteor 2-4 Rocket - Orbit

View from above orbital plane
View from above orbital plane
View from above satellite
View from above satellite

Ground track
Ground track

The orbit data is extracted from the following two-line orbital elements,

1 11289U 79021B   18054.56950898  .00000016  00000-0  23003-5 0  9998
2 11289  81.2449 278.8929 0074529 239.8993 119.4776 14.11573725  6294
Epoch (UTC): 23 February 2018 13:40:05
Eccentricity: 0.0074529
inclination: 81.2449°
perigee height: 800 km
apogee height: 908 km
right ascension of ascending node: 278.8929°
argument of perigee: 239.8993°
revolutions per day: 14.11573725
mean anomaly at epoch: 119.4776°
orbit number at epoch: 629

The dashed part of the orbit path shows where the satellite is in the earth's shadow,  

DLR